Regional Weather Roundup
Issued by NWS

Home | Current Version | Previous Version | Graphics & Text | Print | Product List | Glossary On
Versions: 1 2 3 4 5 6 7 8 9 10 11 12 13 14 15 16 17 18 19 20 21 22 23 24 25 26 27 28 29 30 31 32 33 34 35 36 37 38 39 40 41 42 43 44 45 46 47 48 49 50
000
ASUS43 KIND 191109
RWRIN

WEATHER ROUNDUP FOR INDIANA
NATIONAL WEATHER SERVICE INDIANAPOLIS IN
600 AM EST FRI DEC 19 2014

NOTE: "FAIR" INDICATES FEW OR NO CLOUDS BELOW 12,000 FEET WITH NO
SIGNIFICANT WEATHER AND/OR OBSTRUCTIONS TO VISIBILITY.

* - STATION DOES NOT REPORT WEATHER SUCH AS PRECIPITATION OR FOG.

+ - STATION NOT QUALITY CONTROLLED BY THE NATIONAL WEATHER SERVICE.
    USE DATA WITH CAUTION...ESPECIALLY DEWPOINT AND RELATIVE
    HUMIDITY OBSERVATIONS.

INZ001>003-010>013-019-020-191200-
NORTHWEST INDIANA

CITY           SKY/WX    TMP DP  RH WIND       PRES   REMARKS
GARY /AIRPORT/ CLOUDY    30  21  69 W6        30.28R WCI  24
KNOX *+        CLOUDY    27  22  80 W6        30.25R WCI  21
LA PORTE +     CLOUDY    30  26  87 W6        30.25R WCI  24
MICHIGAN CITY+ CLOUDY    30  23  74 SW3       30.26R
MONTICELLO +   CLOUDY    25  22  87 W3        30.27R
RENSSELAER +   CLOUDY    28  27  93 W5        30.28R WCI  23
VALPARAISO     CLOUDY    27  22  81 W9        30.26R WCI  18

$$

LMZ046-743>745-191200-
SOUTHERN LAKE MICHIGAN

STATION/POSITION TIME  TEMP WIND        PRES
                       AIR  DIR/SP/G
                 (UTC) (F)  (DEG/KT/KT) (MB)

$$

INZ004-005-014>016-021>024-191200-
NORTH CENTRAL INDIANA

CITY           SKY/WX    TMP DP  RH WIND       PRES   REMARKS
GOSHEN         CLOUDY    27  23  85 W6        30.24R WCI  20
LOGANSPORT +   CLOUDY    27  19  74 W3        30.27R
PERU/GRISSOM   CLOUDY    26  24  94 W6        30.25R WCI  19
ROCHESTER +    PTCLDY    28  27  93 W6        30.25S WCI  22
SOUTH BEND     CLOUDY    28  24  85 SW5       30.24S WCI  23
WARSAW +       CLOUDY    27  23  86 W3        30.24S

$$

INZ006>009-017-018-025>027-191200-
NORTHEAST INDIANA

CITY           SKY/WX    TMP DP  RH WIND       PRES   REMARKS
ANGOLA *+      CLOUDY    27  25  93 W5        30.21R WCI  21
AUBURN +       CLOUDY    28  23  80 W6        30.24R WCI  22
FORT WAYNE     CLOUDY    26  21  81 W8        30.25R WCI  18
HUNTINGTON +   CLOUDY    26  22  85 W3        30.24S

$$

INZ028-029-035-036-043>045-051>053-191200-
WEST CENTRAL INDIANA

CITY           SKY/WX    TMP DP  RH WIND       PRES   REMARKS
GREENCASTLE +  MOCLDY    25  18  74 CALM      30.27S
LAFAYETTE      CLOUDY    20  19  96 CALM      30.27F
TERRE HAUTE    CLEAR     24  21  88 CALM      30.30R

$$

INZ030>032-037>040-046>048-054>057-064-065-191200-
CENTRAL INDIANA

CITY           SKY/WX    TMP DP  RH WIND       PRES   REMARKS
CP ATTERBURY + CLEAR     19  18  93 MISG      30.28S
FRANKFORT +    CLOUDY    22  22 100 W5        30.27S WCI  16
INDIANAPOLIS   CLEAR     19  16  88 W7        30.26R WCI  10
-EAGLE CREEK   PTCLDY    22  19  89 CALM      30.26R
KOKOMO *+      CLOUDY    27  19  74 NW7       30.26R WCI  19
MARION +       CLOUDY    26  22  87 W6        30.26R WCI  19
MT COMFORT *+  MOCLDY    19  19 100 CALM      30.26R
SHELBYVILLE    CLEAR     23  18  81 CALM      30.26R
ZIONSVILLE +   CLOUDY    24  19  83 NW5       30.26R WCI  18

$$

INZ033-034-041-042-049-050-058-059-191200-
EAST CENTRAL INDIANA

CITY           SKY/WX    TMP DP  RH WIND       PRES   REMARKS
MUNCIE         CLOUDY    26  20  77 NW5       30.24S WCI  20

$$

INZ060-061-067>069-081>083-085>088-191200-
SOUTHWEST INDIANA

CITY           SKY/WX    TMP DP  RH WIND       PRES   REMARKS
EVANSVILLE     CLOUDY    32  24  72 NE10      30.29S WCI  24
HUNTINGBURG *+ CLOUDY    28  21  74 N7        30.29R WCI  21
WASHINGTON +   CLEAR     25  22  88 N3        30.30R

$$

INZ062-063-066-070>080-084-089>092-191200-
SOUTH CENTRAL AND SOUTHEAST INDIANA

CITY           SKY/WX    TMP DP  RH WIND       PRES   REMARKS
BLOOMINGTON    CLOUDY    26  22  84 VRB3      30.27R

$$




USA.gov is the U.S. government's official web portal to all federal, state and local government web resources and services.